Weather History for KINK - July, 2013

Change the Weather History Date:

Thursday, July 25, 2013

  Actual Average Record
Temperature  
Mean Temperature 84 °F -  
Max Temperature 97 °F 96 °F 109 °F (2000)
Min Temperature 71 °F 69 °F 61 °F (1976)
Cooling Degree Days 18    
Growing Degree Days 34 (Base 50)    
Moisture  
Dew Point 60 °F    
Average Humidity 50    
Maximum Humidity 87    
Minimum Humidity 22    
Precipitation  
Precipitation 0.00 in - - ()
Sea Level Pressure  
Sea Level Pressure 29.92 in    
Wind  
Wind Speed 7 mph (East)    
Max Wind Speed 14 mph    
Max Gust Speed 21 mph    
Visibility 10 miles    
Events      
Averages and records for this station are not official NWS values.
T = Trace of Precipitation, MM = Missing Value Source: NWS Daily Summary

Daily Weather History Graph

Daily Weather History Graph

Search for Another Location

Airport or City:

Trip Planner

Search our weather history database for the weather conditions in past years. The results will help you decide how hot, cold, wet, or windy it might be!

Date:

Astronomy

Jul. 25, 2013 Rise Set
Actual Time 7:04 AM CDT 8:54 PM CDT
Civil Twilight 6:37 AM CDT 9:20 PM CDT
Nautical Twilight 6:04 AM CDT 9:53 PM CDT
Astronomical Twilight 5:30 AM CDT 10:27 PM CDT
Moon 10:54 PM CDT 10:19 AM CDT
Length of Visible Light 14h 43m
Length of Day
13h 49m
Waning Gibbous, 88% of the Moon is Illuminated
Jul 25
Waning Gibbous
Jul 29
Last Quarter
Aug 6
New
Aug 14
First Quarter
Aug 20
Full

Hourly Weather History & Observations

Time (CDT) Temp. Heat Index Dew Point Humidity Pressure Visibility Wind Dir Wind Speed Gust Speed Precip Events Conditions
12:53 AM 75.9 °F - 71.1 °F 85% 29.88 in 10.0 mi NNW 3.5 mph - N/A   Clear
1:53 AM 75.0 °F - 71.1 °F 87% 29.89 in 10.0 mi NNW 4.6 mph - N/A   Clear
2:53 AM 75.9 °F - 69.1 °F 79% 29.90 in 10.0 mi North 5.8 mph - N/A   Clear
3:53 AM 75.0 °F - 66.0 °F 73% 29.92 in 10.0 mi NNW 6.9 mph - N/A   Clear
4:53 AM 73.0 °F - 64.9 °F 76% 29.93 in 10.0 mi North 8.1 mph - N/A   Clear
5:53 AM 72.0 °F - 64.0 °F 76% 29.95 in 10.0 mi North 8.1 mph - N/A   Clear
6:53 AM 71.1 °F - 64.0 °F 78% 29.95 in 10.0 mi North 8.1 mph - N/A   Clear
7:53 AM 72.0 °F - 64.0 °F 76% 29.95 in 10.0 mi North 6.9 mph - N/A   Clear
8:53 AM 75.9 °F - 64.0 °F 67% 29.97 in 10.0 mi NNE 11.5 mph - N/A   Clear
9:53 AM 80.1 °F 81.7 °F 64.0 °F 58% 29.99 in 10.0 mi NE 6.9 mph - N/A   Clear
10:53 AM 82.9 °F 83.7 °F 62.1 °F 49% 29.98 in 10.0 mi Calm Calm - N/A   Clear
11:53 AM 86.0 °F 86.1 °F 61.0 °F 43% 29.99 in 10.0 mi Calm Calm - N/A   Clear
12:53 PM 90.0 °F 88.6 °F 57.0 °F 33% 29.96 in 10.0 mi SSE 8.1 mph - N/A   Clear
1:53 PM 91.0 °F 90.0 °F 57.9 °F 33% 29.95 in 10.0 mi Variable 6.9 mph 17.3 mph N/A   Clear
2:53 PM 91.9 °F 90.3 °F 55.9 °F 30% 29.92 in 10.0 mi ESE 6.9 mph - N/A   Clear
3:53 PM 95.0 °F 93.0 °F 55.0 °F 26% 29.90 in 10.0 mi SE 12.7 mph 20.7 mph N/A   Clear
4:53 PM 96.1 °F 93.8 °F 54.0 °F 24% 29.88 in 10.0 mi SSE 12.7 mph 20.7 mph N/A   Clear
5:53 PM 96.1 °F 93.5 °F 53.1 °F 23% 29.86 in 10.0 mi SSE 10.4 mph - N/A   Clear
6:53 PM 96.1 °F 93.5 °F 53.1 °F 23% 29.85 in 10.0 mi SSE 13.8 mph - N/A   Clear
7:53 PM 93.9 °F - 50.0 °F 22% 29.85 in 10.0 mi SSE 9.2 mph - N/A   Clear
8:53 PM 91.0 °F 88.9 °F 55.0 °F 29% 29.86 in 10.0 mi SSE 8.1 mph - N/A   Clear
9:53 PM 87.1 °F 86.1 °F 57.9 °F 37% 29.88 in 10.0 mi SSE 9.2 mph - N/A   Clear
10:53 PM 86.0 °F 84.9 °F 57.0 °F 37% 29.89 in 10.0 mi SSE 10.4 mph - N/A   Clear
11:53 PM 82.9 °F 82.4 °F 57.0 °F 41% 29.90 in 10.0 mi SSE 8.1 mph - N/A   Clear